{"data":{"norad_id":51798,"epoch":"2026-05-25T01:17:11.636160Z","epoch_age_seconds":70564,"freshness":"FRESH","line1":"1 51798U 22017AG  26145.05360690 -.00000769  00000+0 -30242-4 0  9997","line2":"2 51798  53.2139   6.3082 0001218  95.7497 264.3634 15.08835084235490","mean_motion":15.08835084,"eccentricity":0.0001218,"inclination_deg":53.2139,"raan_deg":6.3082,"arg_perigee_deg":95.7497,"mean_anomaly_deg":264.3634,"bstar":-3.0242e-5,"rev_number":23549,"period_min":95.437865626937,"perigee_km":538.91581558865,"apogee_km":540.6010149118,"semimajor_km":6917.8954152502,"source":"CELESTRAK","updated_at":"2026-05-25T13:38:16.955913Z"}}